When you browse on this site, cookies collect data to enhance your experience and personalize the content and advertising you see.
Visit our Privacy Policy to learn more. By continuing to use the site, you agree to this use of cookies and data.
  • în România
  • Lista ţărilor
  • Pe 7 zile
  • Temperatura apei
  • Hartă satelitară
  • Meteo pe hartă
  • Widget-uri
  • user-avatar
    Intrare

    Meteo pe oră la La Massana

    Astăzi, 16 Ianuarie, Miercuri

    Timp Temperatura Precipitaţii Vânt Presiune Umiditate
    00:00 0°C° 0 mm 1 m/s 608 mmHg 40%
    01:00 0°C° 0 mm 1 m/s 608 mmHg 37%
    02:00 0°C° 0 mm 1 m/s 608 mmHg 35%
    03:00 0°C° 0 mm 1 m/s 607 mmHg 33%
    04:00 0°C° 0 mm 1 m/s 607 mmHg 33%
    05:00 0°C° 0 mm 1 m/s 607 mmHg 34%
    06:00 0°C° 0 mm 1 m/s 607 mmHg 34%
    07:00 +1°C° 0 mm 1 m/s 607 mmHg 36%
    08:00 +2°C° 0 mm 1 m/s 608 mmHg 37%
    09:00 +3°C° 0 mm 1 m/s 608 mmHg 38%
    10:00 +5°C° 0 mm 1 m/s 609 mmHg 38%
    11:00 +6°C° 0 mm 1 m/s 609 mmHg 38%
    12:00 +8°C° 0 mm 1 m/s 610 mmHg 38%
    13:00 +7°C° 0 mm 1 m/s 609 mmHg 42%
    14:00 +6°C° 0 mm 1 m/s 609 mmHg 45%
    15:00 +6°C° 0 mm 1 m/s 608 mmHg 49%
    16:00 +4°C° 0 mm 1 m/s 608 mmHg 57%
    17:00 +1°C° 0 mm 1 m/s 607 mmHg 66%
    18:00 -2°C° 0 mm 0 m/s 606 mmHg 75%
    19:00 -2°C° 0 mm 0 m/s 606 mmHg 75%
    20:00 -2°C° 0 mm 0 m/s 606 mmHg 75%
    21:00 -3°C° 0 mm 0 m/s 606 mmHg 76%
    22:00 -3°C° 0 mm 0 m/s 606 mmHg 75%
    23:00 -3°C° 0 mm 0 m/s 606 mmHg 75%

    Mâine, 17 Ianuarie, Joi

    Timp Temperatura Precipitaţii Vânt Presiune Umiditate
    00:00 -3°C° 0 mm 0 m/s 606 mmHg 75%
    01:00 -2°C° 0 mm 1 m/s 606 mmHg 75%
    02:00 -2°C° 0 mm 1 m/s 606 mmHg 75%
    03:00 -3°C° 0 mm 1 m/s 605 mmHg 75%
    04:00 -3°C° 0 mm 1 m/s 605 mmHg 77%
    05:00 -3°C° 0 mm 1 m/s 605 mmHg 80%
    06:00 -3°C° 0 mm 1 m/s 605 mmHg 83%
    07:00 -2°C° 0 mm 1 m/s 606 mmHg 82%
    08:00 -1°C° 0 mm 1 m/s 607 mmHg 81%
    09:00 -2°C° 0 mm 2 m/s 608 mmHg 80%
    10:00 -2°C° 0.5 mm 2 m/s 608 mmHg 79%
    11:00 -1°C° 0.5 mm 2 m/s 608 mmHg 78%
    12:00 -1°C° 0.5 mm 2 m/s 608 mmHg 77%
    13:00 -2°C° 0.3 mm 2 m/s 607 mmHg 77%
    14:00 -2°C° 0.3 mm 2 m/s 607 mmHg 77%
    15:00 -3°C° 0.3 mm 2 m/s 607 mmHg 76%
    16:00 -4°C° 0 mm 2 m/s 606 mmHg 79%
    17:00 -5°C° 0 mm 2 m/s 606 mmHg 81%
    18:00 -7°C° 0 mm 2 m/s 606 mmHg 84%
    19:00 -7°C° 0 mm 2 m/s 606 mmHg 83%
    20:00 -7°C° 0 mm 2 m/s 606 mmHg 83%
    21:00 -8°C° 0 mm 2 m/s 606 mmHg 82%
    22:00 -8°C° 0 mm 2 m/s 606 mmHg 84%
    23:00 -8°C° 0 mm 2 m/s 606 mmHg 86%

    Poimâine, 18 Ianuarie, Vineri

    Timp Temperatura Precipitaţii Vânt Presiune Umiditate
    00:00 -8°C° 0 mm 2 m/s 606 mmHg 87%
    01:00 -8°C° 0 mm 2 m/s 606 mmHg 87%
    02:00 -8°C° 0 mm 2 m/s 606 mmHg 88%
    03:00 -8°C° 0 mm 2 m/s 605 mmHg 88%
    04:00 -8°C° 0 mm 2 m/s 605 mmHg 88%
    05:00 -8°C° 0 mm 2 m/s 605 mmHg 88%
    06:00 -8°C° 0 mm 2 m/s 605 mmHg 88%
    07:00 -6°C° 0 mm 1 m/s 606 mmHg 82%
    08:00 -4°C° 0 mm 1 m/s 606 mmHg 77%
    09:00 -3°C° 0 mm 1 m/s 606 mmHg 71%
    10:00 -2°C° 0 mm 1 m/s 607 mmHg 63%
    11:00 -1°C° 0 mm 1 m/s 607 mmHg 55%
    12:00 0°C° 0 mm 1 m/s 607 mmHg 46%
    13:00 0°C° 0 mm 1 m/s 607 mmHg 50%
    14:00 0°C° 0 mm 1 m/s 607 mmHg 53%
    15:00 0°C° 0 mm 1 m/s 606 mmHg 56%
    16:00 -2°C° 0 mm 1 m/s 606 mmHg 63%
    17:00 -3°C° 0 mm 1 m/s 605 mmHg 70%
    18:00 -5°C° 0 mm 0 m/s 605 mmHg 77%
    19:00 -5°C° 0 mm 0 m/s 605 mmHg 77%
    20:00 -6°C° 0 mm 1 m/s 605 mmHg 77%
    21:00 -6°C° 0 mm 1 m/s 605 mmHg 76%
    22:00 -6°C° 0 mm 1 m/s 604 mmHg 75%
    23:00 -6°C° 0 mm 1 m/s 604 mmHg 74%

    19 Ianuarie, Sâmbătă

    Timp Temperatura Precipitaţii Vânt Presiune Umiditate
    00:00 -6°C° 0 mm 1 m/s 604 mmHg 73%
    01:00 -6°C° 0 mm 1 m/s 604 mmHg 73%
    02:00 -6°C° 0 mm 1 m/s 604 mmHg 73%
    03:00 -6°C° 0 mm 1 m/s 603 mmHg 73%
    04:00 -6°C° 0 mm 1 m/s 603 mmHg 73%
    05:00 -6°C° 0 mm 1 m/s 603 mmHg 74%
    06:00 -4°C° 0 mm 1 m/s 603 mmHg 74%
    07:00 -3°C° 0 mm 1 m/s 604 mmHg 72%
    08:00 -3°C° 0 mm 0 m/s 604 mmHg 70%
    09:00 -2°C° 0 mm 0 m/s 605 mmHg 68%
    10:00 0°C° 0 mm 1 m/s 605 mmHg 64%
    11:00 +1°C° 0 mm 1 m/s 605 mmHg 60%
    12:00 +3°C° 0 mm 1 m/s 606 mmHg 56%
    13:00 +2°C° 0 mm 1 m/s 605 mmHg 59%
    14:00 +2°C° 0 mm 1 m/s 604 mmHg 62%
    15:00 +1°C° 0 mm 1 m/s 603 mmHg 65%
    16:00 0°C° 0.1 mm 1 m/s 603 mmHg 73%
    17:00 -2°C° 0.1 mm 1 m/s 602 mmHg 81%
    18:00 -4°C° 0.1 mm 0 m/s 602 mmHg 90%
    19:00 -4°C° 0 mm 1 m/s 602 mmHg 89%
    20:00 -4°C° 0 mm 1 m/s 602 mmHg 89%
    21:00 -4°C° 0 mm 1 m/s 601 mmHg 89%
    22:00 -4°C° 0 mm 1 m/s 602 mmHg 88%
    23:00 -4°C° 0 mm 1 m/s 602 mmHg 88%

    20 Ianuarie, Duminică

    Timp Temperatura Precipitaţii Vânt Presiune Umiditate
    00:00 -4°C° 0 mm 1 m/s 602 mmHg 88%
    01:00 -4°C° 0.1 mm 1 m/s 602 mmHg 89%
    02:00 -3°C° 0.1 mm 1 m/s 602 mmHg 90%
    03:00 -5°C° 0.1 mm 2 m/s 602 mmHg 90%
    04:00 -5°C° 0 mm 2 m/s 602 mmHg 91%
    05:00 -6°C° 0 mm 2 m/s 602 mmHg 91%
    06:00 -6°C° 0 mm 2 m/s 602 mmHg 91%
    07:00 -5°C° 0 mm 2 m/s 603 mmHg 86%
    08:00 -5°C° 0 mm 2 m/s 604 mmHg 81%
    09:00 -4°C° 0 mm 2 m/s 604 mmHg 76%
    10:00 -3°C° 0 mm 2 m/s 605 mmHg 71%
    11:00 -2°C° 0 mm 2 m/s 605 mmHg 65%
    12:00 -1°C° 0 mm 2 m/s 606 mmHg 60%
    13:00 -1°C° 0 mm 2 m/s 605 mmHg 61%
    14:00 -1°C° 0 mm 2 m/s 605 mmHg 63%
    15:00 -1°C° 0 mm 2 m/s 605 mmHg 64%
    16:00 -3°C° 0 mm 2 m/s 604 mmHg 72%
    17:00 -2°C° 0 mm 1 m/s 604 mmHg 80%
    18:00 -4°C° 0 mm 1 m/s 604 mmHg 88%
    19:00 -4°C° 0.4 mm 1 m/s 604 mmHg 88%
    20:00 -3°C° 0.4 mm 1 m/s 605 mmHg 89%
    21:00 -3°C° 0.4 mm 1 m/s 605 mmHg 89%
    22:00 -3°C° 0.6 mm 1 m/s 606 mmHg 90%
    23:00 -5°C° 0.6 mm 2 m/s 606 mmHg 90%

    21 Ianuarie, Luni

    Timp Temperatura Precipitaţii Vânt Presiune Umiditate
    00:00 -5°C° 0.6 mm 2 m/s 606 mmHg 91%
    01:00 -5°C° 0.2 mm 2 m/s 606 mmHg 91%
    02:00 -5°C° 0.2 mm 2 m/s 606 mmHg 91%
    03:00 -6°C° 0.2 mm 2 m/s 606 mmHg 91%
    04:00 -6°C° 0.1 mm 2 m/s 606 mmHg 91%
    05:00 -6°C° 0.1 mm 2 m/s 606 mmHg 91%
    06:00 -7°C° 0.1 mm 2 m/s 606 mmHg 91%
    07:00 -6°C° 0 mm 2 m/s 606 mmHg 87%
    08:00 -6°C° 0 mm 2 m/s 607 mmHg 83%
    09:00 -6°C° 0 mm 2 m/s 607 mmHg 80%
    10:00 -5°C° 0.1 mm 2 m/s 607 mmHg 76%
    11:00 -4°C° 0.1 mm 2 m/s 608 mmHg 73%
    12:00 -4°C° 0.1 mm 2 m/s 608 mmHg 70%
    13:00 -4°C° 0.1 mm 2 m/s 607 mmHg 70%
    14:00 -4°C° 0.1 mm 2 m/s 607 mmHg 69%
    15:00 -4°C° 0.1 mm 2 m/s 607 mmHg 69%
    16:00 -6°C° 0 mm 2 m/s 606 mmHg 76%
    17:00 -7°C° 0 mm 2 m/s 606 mmHg 83%
    18:00 -8°C° 0 mm 2 m/s 605 mmHg 89%
    19:00 -8°C° 0.1 mm 2 m/s 605 mmHg 89%
    20:00 -8°C° 0.1 mm 2 m/s 605 mmHg 89%
    21:00 -8°C° 0.1 mm 2 m/s 606 mmHg 88%
    22:00 -9°C° 0.1 mm 2 m/s 605 mmHg 88%
    23:00 -9°C° 0.1 mm 2 m/s 605 mmHg 89%
    Arată mai mult